| time (UTC) | temp C | wind direction | speed KPH | gust KPH | rain 1hr cm | rain 24hr cm | rain mn cm | humidity % | barometer mb |
| 20260505070509 | 6 | 133 | 4.8 | 6.4 | 0.00 | 0.00 | 0.00 | 74 | 1009.4 |
| 20260505070005 | 7 | 158 | 8.0 | 8.0 | 0.00 | 0.00 | 0.00 | 74 | 1009.2 |
| 20260505065501 | 6 | 152 | 3.2 | 3.2 | 0.00 | 0.00 | 0.00 | 74 | 1009.3 |
| 20260505064957 | 7 | 154 | 4.8 | 8.0 | 0.00 | 0.00 | 0.00 | 72 | 1009.4 |
| 20260505064454 | 7 | 206 | 4.8 | 6.4 | 0.00 | 0.00 | 0.00 | 69 | 1009.3 |
| 20260505063953 | 7 | 225 | 4.8 | 6.4 | 0.00 | 0.00 | 0.00 | 68 | 1009.1 |
| 20260505063449 | 7 | 157 | 0.0 | 1.6 | 0.00 | 0.00 | 0.00 | 71 | 1009.1 |
| 20260505062945 | 7 | 111 | 1.6 | 1.6 | 0.00 | 0.00 | 0.00 | 71 | 1009.2 |
| 20260505062442 | 7 | 123 | 1.6 | 4.8 | 0.00 | 0.00 | 0.00 | 70 | 1009.0 |
| 20260505061939 | 7 | 45 | 0.0 | 3.2 | 0.00 | 0.00 | 0.00 | 67 | 1009.2 |
| 20260505061437 | 7 | 7 | 1.6 | 4.8 | 0.00 | 0.00 | 0.00 | 67 | 1008.8 |
| 20260505060935 | 7 | 2 | 4.8 | 4.8 | 0.00 | 0.00 | 0.00 | 67 | 1009.0 |
| 20260505060432 | 7 | 48 | 3.2 | 6.4 | 0.00 | 0.00 | 0.00 | 68 | 1009.1 |
| 20260505055928 | 7 | 106 | 0.0 | 3.2 | 0.00 | 0.00 | 0.00 | 69 | 1008.8 |
| 20260505055424 | 7 | 340 | 0.0 | 3.2 | 0.00 | 0.00 | 0.00 | 70 | 1009.1 |
| 20260505054921 | 7 | 78 | 1.6 | 4.8 | 0.00 | 0.00 | 0.00 | 73 | 1009.0 |
| 20260505054418 | 7 | 56 | 0.0 | 3.2 | 0.00 | 0.00 | 0.00 | 69 | 1008.8 |
| 20260505053916 | 7 | 98 | 1.6 | 4.8 | 0.00 | 0.00 | 0.00 | 73 | 1009.0 |
| 20260505053413 | 7 | 0 | 0.0 | 0.0 | 0.00 | 0.00 | 0.00 | 70 | 1009.0 |
| 20260505052910 | 7 | 23 | 0.0 | 0.0 | 0.00 | 0.00 | 0.00 | 70 | 1008.8 |
| 20260505052407 | 7 | 351 | 3.2 | 3.2 | 0.00 | 0.00 | 0.00 | 70 | 1009.1 |
| 20260505051904 | 7 | 165 | 0.0 | 0.0 | 0.00 | 0.00 | 0.00 | 71 | 1008.8 |
| 20260505051401 | 7 | 165 | 0.0 | 0.0 | 0.00 | 0.00 | 0.00 | 71 | 1009.1 |
| 20260505050859 | 7 | 23 | 0.0 | 0.0 | 0.00 | 0.00 | 0.00 | 70 | 1008.7 |
| 20260505050357 | 7 | 276 | 3.2 | 3.2 | 0.00 | 0.00 | 0.00 | 70 | 1008.7 |
| 20260505041325 | 9 | 94 | 4.8 | 8.0 | 0.00 | 0.00 | 0.00 | 64 | 1008.5 |
| 20260505040821 | 10 | 126 | 8.0 | 8.0 | 0.00 | 0.00 | 0.00 | 64 | 1008.2 |
| 20260505040319 | 9 | 123 | 4.8 | 11.3 | 0.00 | 0.00 | 0.00 | 64 | 1008.4 |
| 20260505035816 | 8 | 125 | 4.8 | 8.0 | 0.00 | 0.00 | 0.00 | 67 | 1008.1 |
| 20260505035311 | 9 | 90 | 1.6 | 11.3 | 0.00 | 0.00 | 0.00 | 66 | 1008.2 |
| 20260505034809 | 10 | 110 | 6.4 | 12.9 | 0.00 | 0.00 | 0.00 | 63 | 1008.0 |
| 20260505034305 | 10 | 135 | 3.2 | 14.5 | 0.00 | 0.00 | 0.00 | 63 | 1008.1 |
| 20260505033803 | 10 | 11 | 3.2 | 8.0 | 0.00 | 0.00 | 0.00 | 64 | 1008.2 |
| 20260505033259 | 10 | 32 | 0.0 | 4.8 | 0.00 | 0.00 | 0.00 | 65 | 1008.1 |
| 20260505032757 | 10 | 8 | 0.0 | 8.0 | 0.00 | 0.00 | 0.00 | 64 | 1008.1 |
| 20260505032253 | 10 | 23 | 4.8 | 8.0 | 0.00 | 0.00 | 0.00 | 64 | 1008.0 |
| 20260505031750 | 10 | 17 | 4.8 | 11.3 | 0.00 | 0.00 | 0.00 | 64 | 1008.0 |
| 20260505031247 | 10 | 28 | 3.2 | 8.0 | 0.00 | 0.00 | 0.00 | 63 | 1007.7 |
| 20260505030744 | 10 | 84 | 11.3 | 11.3 | 0.00 | 0.00 | 0.00 | 64 | 1007.9 |
| 20260505030240 | 10 | 72 | 6.4 | 17.7 | 0.00 | 0.00 | 0.00 | 64 | 1007.9 |
| 20260505025735 | 10 | 103 | 8.0 | 16.1 | 0.00 | 0.00 | 0.00 | 63 | 1007.7 |
| 20260505025234 | 10 | 106 | 4.8 | 11.3 | 0.00 | 0.00 | 0.00 | 64 | 1007.7 |
| 20260505024732 | 10 | 90 | 3.2 | 14.5 | 0.00 | 0.00 | 0.00 | 64 | 1007.5 |
| 20260505024229 | 10 | 75 | 3.2 | 14.5 | 0.00 | 0.00 | 0.00 | 63 | 1007.6 |
| 20260505023726 | 10 | 99 | 11.3 | 12.9 | 0.00 | 0.00 | 0.00 | 63 | 1007.5 |
| 20260505023223 | 10 | 106 | 0.0 | 6.4 | 0.00 | 0.00 | 0.00 | 64 | 1007.7 |
| 20260505022721 | 10 | 63 | 0.0 | 8.0 | 0.00 | 0.00 | 0.00 | 63 | 1007.6 |
| 20260505022217 | 10 | 28 | 1.6 | 6.4 | 0.00 | 0.00 | 0.00 | 63 | 1007.7 |
| 20260505021714 | 10 | 45 | 3.2 | 12.9 | 0.00 | 0.00 | 0.00 | 62 | 1007.9 |
| 20260505021211 | 11 | 90 | 3.2 | 9.7 | 0.00 | 0.00 | 0.00 | 61 | 1007.9 |
| 20260505020707 | 11 | 73 | 0.0 | 11.3 | 0.00 | 0.00 | 0.00 | 60 | 1007.6 |
| 20260505020202 | 11 | 103 | 6.4 | 8.0 | 0.00 | 0.00 | 0.00 | 59 | 1007.6 |
| 20260505015700 | 11 | 82 | 3.2 | 6.4 | 0.00 | 0.00 | 0.00 | 58 | 1007.5 |
| 20260505015156 | 11 | 75 | 6.4 | 11.3 | 0.00 | 0.00 | 0.00 | 59 | 1007.5 |
| 20260505014654 | 12 | 88 | 8.0 | 8.0 | 0.00 | 0.00 | 0.00 | 58 | 1007.6 |
| 20260505014150 | 12 | 94 | 8.0 | 12.9 | 0.00 | 0.00 | 0.00 | 61 | 1007.6 |
| 20260505013648 | 12 | 88 | 6.4 | 8.0 | 0.00 | 0.00 | 0.00 | 56 | 1007.6 |
| 20260505013144 | 13 | 7 | 1.6 | 6.4 | 0.00 | 0.00 | 0.00 | 56 | 1007.6 |
| 20260505012643 | 13 | 23 | 3.2 | 6.4 | 0.00 | 0.00 | 0.00 | 56 | 1007.5 |
| 20260505012140 | 14 | 34 | 3.2 | 4.8 | 0.00 | 0.00 | 0.00 | 54 | 1007.6 |
| 20260505011635 | 13 | 60 | 1.6 | 8.0 | 0.00 | 0.00 | 0.00 | 55 | 1007.6 |
| 20260505011133 | 13 | 102 | 8.0 | 9.7 | 0.00 | 0.00 | 0.00 | 51 | 1007.6 |
| 20260505010628 | 14 | 111 | 6.4 | 9.7 | 0.00 | 0.00 | 0.00 | 52 | 1007.6 |
| 20260505010125 | 15 | 120 | 6.4 | 11.3 | 0.00 | 0.00 | 0.00 | 49 | 1007.7 |
| 20260505005621 | 14 | 132 | 8.0 | 11.3 | 0.00 | 0.00 | 0.00 | 52 | 1008.0 |
| 20260505005118 | 14 | 155 | 8.0 | 14.5 | 0.00 | 0.00 | 0.00 | 54 | 1007.9 |
| 20260505004615 | 13 | 131 | 8.0 | 17.7 | 0.00 | 0.00 | 0.00 | 56 | 1007.7 |
| 20260505004112 | 13 | 148 | 12.9 | 20.9 | 0.00 | 0.00 | 0.00 | 58 | 1008.0 |
| 20260505003609 | 13 | 153 | 11.3 | 14.5 | 0.00 | 0.00 | 0.00 | 56 | 1007.7 |
| 20260505003106 | 13 | 160 | 0.0 | 9.7 | 0.05 | 0.00 | 0.00 | 60 | 1007.9 |
| 20260505002601 | 12 | 145 | 6.4 | 6.4 | 0.05 | 0.00 | 0.00 | 62 | 1007.9 |
| 20260505002055 | 12 | 238 | 4.8 | 22.5 | 0.00 | 0.00 | 0.00 | 61 | 1008.2 |
| 20260505001552 | 13 | 231 | 19.3 | 27.4 | 0.00 | 0.00 | 0.00 | 54 | 1008.0 |
| 20260505001049 | 13 | 273 | 4.8 | 24.1 | 0.00 | 0.00 | 0.00 | 54 | 1008.1 |
| 20260505000547 | 13 | 302 | 9.7 | 27.4 | 0.00 | 0.00 | 0.00 | 52 | 1008.0 |
| 20260505000044 | 15 | 330 | 3.2 | 8.0 | 0.00 | 0.00 | 0.00 | 46 | 1007.9 |
| 20260504235540 | 15 | 334 | 3.2 | 8.0 | 0.00 | 0.00 | 0.00 | 47 | 1007.6 |
| 20260504235038 | 15 | 313 | 4.8 | 19.3 | 0.00 | 0.00 | 0.00 | 44 | 1007.5 |
| 20260504234534 | 15 | 276 | 1.6 | 14.5 | 0.00 | 0.00 | 0.00 | 48 | 1007.3 |
| 20260504234031 | 15 | 311 | 0.0 | 8.0 | 0.00 | 0.00 | 0.00 | 45 | 1007.4 |
| 20260504233526 | 16 | 251 | 1.6 | 4.8 | 0.00 | 0.00 | 0.00 | 43 | 1007.5 |
| 20260504233024 | 16 | 355 | 3.2 | 8.0 | 0.00 | 0.00 | 0.00 | 43 | 1007.3 |
| 20260504232521 | 17 | 4 | 9.7 | 14.5 | 0.00 | 0.00 | 0.00 | 43 | 1007.5 |
| 20260504232019 | 17 | 5 | 8.0 | 16.1 | 0.00 | 0.00 | 0.00 | 43 | 1007.4 |
| 20260504231515 | 17 | 347 | 8.0 | 20.9 | 0.00 | 0.00 | 0.00 | 43 | 1007.4 |
| 20260504231011 | 16 | 0 | 20.9 | 30.6 | 0.00 | 0.00 | 0.00 | 44 | 1007.4 |
| 20260504230508 | 16 | 358 | 25.7 | 29.0 | 0.00 | 0.00 | 0.00 | 43 | 1007.4 |
| 20260504230007 | 16 | 16 | 11.3 | 27.4 | 0.00 | 0.00 | 0.00 | 44 | 1007.4 |
| 20260504225503 | 16 | 18 | 11.3 | 29.0 | 0.00 | 0.00 | 0.00 | 44 | 1007.5 |
| 20260504225000 | 16 | 352 | 14.5 | 19.3 | 0.00 | 0.00 | 0.00 | 46 | 1007.5 |
| 20260504224456 | 16 | 297 | 3.2 | 11.3 | 0.00 | 0.00 | 0.00 | 44 | 1007.5 |
| 20260504223953 | 16 | 341 | 6.4 | 20.9 | 0.00 | 0.00 | 0.00 | 42 | 1007.5 |
| 20260504223450 | 17 | 320 | 9.7 | 27.4 | 0.00 | 0.00 | 0.00 | 40 | 1007.3 |
| 20260504222945 | 17 | 328 | 17.7 | 27.4 | 0.00 | 0.00 | 0.00 | 39 | 1007.3 |
| 20260504222443 | 18 | 277 | 17.7 | 22.5 | 0.00 | 0.00 | 0.00 | 39 | 1007.1 |
| 20260504221941 | 18 | 293 | 32.2 | 32.2 | 0.00 | 0.00 | 0.00 | 37 | 1007.3 |
| 20260504221438 | 20 | 287 | 4.8 | 9.7 | 0.00 | 0.00 | 0.00 | 36 | 1007.1 |
| 20260504220934 | 20 | 273 | 4.8 | 11.3 | 0.00 | 0.00 | 0.00 | 37 | 1007.0 |
| 20260504220431 | 19 | 32 | 4.8 | 9.7 | 0.00 | 0.00 | 0.00 | 35 | 1007.1 |
| 20260504215928 | 18 | 282 | 11.3 | 19.3 | 0.00 | 0.00 | 0.00 | 37 | 1007.4 |
| 20260504215425 | 19 | 329 | 4.8 | 9.7 | 0.00 | 0.00 | 0.00 | 38 | 1007.5 |
| 20260504214921 | 19 | 353 | 6.4 | 9.7 | 0.00 | 0.00 | 0.00 | 40 | 1007.5 |
| 20260504214418 | 18 | 283 | 6.4 | 24.1 | 0.00 | 0.00 | 0.00 | 36 | 1007.6 |
| 20260504213915 | 19 | 265 | 3.2 | 11.3 | 0.00 | 0.00 | 0.00 | 39 | 1007.7 |
| 20260504213410 | 19 | 298 | 17.7 | 19.3 | 0.00 | 0.00 | 0.00 | 35 | 1007.7 |
| 20260504212909 | 18 | 313 | 16.1 | 24.1 | 0.00 | 0.00 | 0.00 | 37 | 1007.6 |
| 20260504212404 | 20 | 350 | 4.8 | 14.5 | 0.00 | 0.00 | 0.00 | 37 | 1007.6 |
| 20260504211902 | 20 | 246 | 16.1 | 17.7 | 0.00 | 0.00 | 0.00 | 38 | 1007.9 |
| 20260504211358 | 18 | 291 | 6.4 | 19.3 | 0.00 | 0.00 | 0.00 | 38 | 1007.7 |
| 20260504210855 | 18 | 299 | 6.4 | 19.3 | 0.00 | 0.00 | 0.00 | 35 | 1007.9 |
| 20260504210352 | 18 | 266 | 11.3 | 19.3 | 0.00 | 0.00 | 0.00 | 37 | 1008.1 |
| 20260504205849 | 19 | 275 | 6.4 | 20.9 | 0.00 | 0.00 | 0.00 | 38 | 1007.9 |
| 20260504205347 | 19 | 295 | 6.4 | 27.4 | 0.00 | 0.00 | 0.00 | 38 | 1008.1 |
| 20260504204845 | 19 | 282 | 12.9 | 19.3 | 0.00 | 0.00 | 0.00 | 39 | 1008.0 |
| 20260504204343 | 18 | 268 | 14.5 | 29.0 | 0.00 | 0.00 | 0.00 | 37 | 1008.0 |
| 20260504203842 | 19 | 209 | 12.9 | 24.1 | 0.00 | 0.00 | 0.00 | 39 | 1008.0 |
| 20260504203339 | 18 | 334 | 11.3 | 14.5 | 0.00 | 0.00 | 0.00 | 38 | 1008.1 |
| 20260504202834 | 18 | 270 | 9.7 | 14.5 | 0.00 | 0.00 | 0.00 | 38 | 1008.2 |
| 20260504202332 | 18 | 270 | 8.0 | 16.1 | 0.00 | 0.00 | 0.00 | 40 | 1008.2 |
| 20260504201828 | 17 | 308 | 14.5 | 20.9 | 0.00 | 0.00 | 0.00 | 38 | 1008.2 |
| 20260504201326 | 18 | 287 | 0.0 | 11.3 | 0.00 | 0.00 | 0.00 | 39 | 1008.2 |
| 20260504200823 | 18 | 261 | 14.5 | 19.3 | 0.00 | 0.00 | 0.00 | 40 | 1008.4 |
| 20260504200320 | 18 | 310 | 0.0 | 16.1 | 0.00 | 0.00 | 0.00 | 38 | 1008.4 |
| 20260504195816 | 19 | 303 | 3.2 | 17.7 | 0.00 | 0.00 | 0.00 | 41 | 1008.4 |
| 20260504195312 | 18 | 228 | 9.7 | 14.5 | 0.00 | 0.00 | 0.00 | 39 | 1008.4 |
| 20260504194809 | 18 | 274 | 11.3 | 20.9 | 0.00 | 0.00 | 0.00 | 39 | 1008.6 |
| 20260504194305 | 18 | 6 | 8.0 | 17.7 | 0.00 | 0.00 | 0.00 | 37 | 1008.4 |
| 20260504193801 | 17 | 276 | 6.4 | 8.0 | 0.00 | 0.00 | 0.00 | 43 | 1008.6 |
| 20260504193259 | 17 | 270 | 3.2 | 11.3 | 0.00 | 0.00 | 0.00 | 40 | 1008.6 |
| 20260504192757 | 17 | 270 | 3.2 | 12.9 | 0.00 | 0.00 | 0.00 | 40 | 1008.6 |
| 20260504192254 | 18 | 270 | 4.8 | 14.5 | 0.00 | 0.00 | 0.00 | 37 | 1008.5 |
| 20260504191753 | 18 | 268 | 8.0 | 12.9 | 0.00 | 0.00 | 0.00 | 39 | 1008.7 |
| 20260504191250 | 19 | 346 | 3.2 | 14.5 | 0.00 | 0.00 | 0.00 | 40 | 1008.7 |
| 20260504190745 | 17 | 207 | 4.8 | 12.9 | 0.00 | 0.00 | 0.00 | 36 | 1008.6 |
| 20260504190242 | 17 | 275 | 6.4 | 14.5 | 0.00 | 0.00 | 0.00 | 36 | 1008.8 |
| 20260504185738 | 17 | 331 | 8.0 | 12.9 | 0.00 | 0.00 | 0.00 | 37 | 1009.0 |
| 20260504185235 | 17 | 344 | 4.8 | 8.0 | 0.00 | 0.00 | 0.00 | 39 | 1009.0 |
| 20260504184731 | 17 | 258 | 9.7 | 17.7 | 0.00 | 0.00 | 0.00 | 40 | 1009.0 |
| 20260504184227 | 18 | 278 | 11.3 | 17.7 | 0.00 | 0.00 | 0.00 | 41 | 1009.0 |
| 20260504183723 | 17 | 23 | 6.4 | 11.3 | 0.00 | 0.00 | 0.00 | 43 | 1009.0 |
| 20260504183220 | 17 | 275 | 14.5 | 14.5 | 0.00 | 0.00 | 0.00 | 41 | 1009.1 |
| 20260504182719 | 17 | 313 | 0.0 | 11.3 | 0.00 | 0.00 | 0.00 | 43 | 1009.2 |
| 20260504182215 | 16 | 281 | 4.8 | 9.7 | 0.00 | 0.00 | 0.00 | 43 | 1009.2 |
| 20260504181713 | 16 | 344 | 8.0 | 12.9 | 0.00 | 0.00 | 0.00 | 42 | 1009.3 |
| 20260504181210 | 16 | 5 | 1.6 | 4.8 | 0.00 | 0.00 | 0.00 | 41 | 1009.1 |
| 20260504180709 | 16 | 270 | 3.2 | 11.3 | 0.00 | 0.00 | 0.00 | 42 | 1009.1 |
| 20260504180207 | 16 | 281 | 9.7 | 11.3 | 0.00 | 0.00 | 0.00 | 41 | 1009.2 |
| 20260504175704 | 16 | 251 | 4.8 | 8.0 | 0.00 | 0.00 | 0.00 | 39 | 1009.1 |
| 20260504175201 | 16 | 310 | 4.8 | 12.9 | 0.00 | 0.00 | 0.00 | 43 | 1009.1 |
| 20260504174659 | 16 | 201 | 4.8 | 12.9 | 0.00 | 0.00 | 0.00 | 42 | 1009.2 |
| 20260504174156 | 16 | 239 | 11.3 | 14.5 | 0.00 | 0.00 | 0.00 | 42 | 1009.4 |
| 20260504173653 | 16 | 247 | 9.7 | 12.9 | 0.00 | 0.00 | 0.00 | 41 | 1009.4 |
| 20260504173150 | 16 | 252 | 4.8 | 9.7 | 0.00 | 0.00 | 0.00 | 41 | 1009.3 |
| 20260504172647 | 16 | 243 | 6.4 | 12.9 | 0.00 | 0.00 | 0.00 | 38 | 1009.3 |
| 20260504172143 | 17 | 205 | 8.0 | 8.0 | 0.00 | 0.00 | 0.00 | 38 | 1009.2 |
| 20260504171639 | 17 | 0 | 4.8 | 6.4 | 0.00 | 0.00 | 0.00 | 39 | 1009.3 |
| 20260504171137 | 15 | 342 | 1.6 | 6.4 | 0.00 | 0.00 | 0.00 | 38 | 1009.2 |
| 20260504170633 | 16 | 7 | 6.4 | 8.0 | 0.00 | 0.00 | 0.00 | 39 | 1009.3 |
| 20260504170131 | 16 | 270 | 0.0 | 3.2 | 0.00 | 0.00 | 0.00 | 40 | 1009.3 |
| 20260504151016 | 13 | 0 | 1.6 | 8.0 | 0.00 | 0.00 | 0.00 | 46 | 1009.3 |
| 20260504150513 | 12 | 34 | 3.2 | 9.7 | 0.00 | 0.00 | 0.00 | 48 | 1009.2 |
| 20260504140939 | 10 | 26 | 4.8 | 9.7 | 0.00 | 0.00 | 0.00 | 54 | 1009.2 |
| 20260504140435 | 10 | 31 | 4.8 | 6.4 | 0.00 | 0.00 | 0.00 | 57 | 1009.2 |
| 20260504130400 | 6 | 127 | 0.0 | 6.4 | 0.00 | 0.00 | 0.00 | 60 | 1008.8 |
| 20260504110248 | 6 | 79 | 11.3 | 12.9 | 0.00 | 0.00 | 0.00 | 61 | 1009.2 |
| 20260504100205 | 7 | 66 | 0.0 | 11.3 | 0.00 | 0.00 | 0.00 | 60 | 1009.2 |
| 20260504090122 | 8 | 86 | 12.9 | 17.7 | 0.00 | 0.00 | 0.00 | 57 | 1009.3 |
| 20260504081552 | 7 | 95 | 6.4 | 9.7 | 0.00 | 0.00 | 0.00 | 56 | 1009.8 |
| 20260504081048 | 8 | 135 | 6.4 | 11.3 | 0.00 | 0.00 | 0.00 | 54 | 1009.9 |
| 20260504080545 | 8 | 107 | 4.8 | 14.5 | 0.00 | 0.00 | 0.00 | 51 | 1010.0 |